星链-2164 (STARLINK-2164 )

导读

STARLINK-2164是美国SpaceX星链星座中的成员,于2021年3月4日发射升空,属于星链一期组网卫星,运行在近地轨道。它是星链全球卫星互联网计划的组成部分,依托氪离子推进、自主碰撞规避等技术,为全球偏远地区、海洋等场景提供高速低延迟宽带互联网接入,助力构建覆盖全球的太空通信网络。

Basic Information
目录编号:
47750
目录名称:
STARLINK-2164
国际标识:
2021-017AE
轨道中心:
EARTH
卫星名称:
星链-2164
卫星全名:
星链-2164 (STARLINK-2164 )
卫星状态:
在轨 (已飞行1932 天)
发射日期:
2021-03-04 UTC
国别 :
美国 (US)
星等 :
--
Orbit Information
数据来源 国际轨道数据 AOE轨道数据
星历时间 2026-06-18T09:58:56+0800
16小时前
查看轨道信息
2026-06-16T01:00:00+0800
3天前
查看轨道信息
半长轴 6848.892km 6848.828km
偏心率 0.0001318 0.0001419
轨道倾角 53.161° 53.160°
近地点辐角 80.774° 83.314°
升交点赤经 86.495° 97.548°
平近点角 279.341° 137.586°
近地点 469.852km 469.719km
远地点 471.658km 471.663km
周期 94.013分钟 94.012分钟
每日圈数 15.316953 15.317166
Detailed Information
固有亮度:
5
最大亮度:
2.5
卫星平台:
Starlink V1.0
覆盖范围:
全球
运营商:
太空探索技术公司
运营商所在国:
美国
制造商(研发单位):
太空探索技术公司
制造商所在国:
美国
使用方式:
暂无
Satellite Introduction
星链(Starlink)计划是由太空探索技术公司(SpaceX)提出的一个巨型低轨卫星互联网星座项目,计划在2019年至2024年间在太空搭建由约1.2万颗卫星组成的“星链”网络,其中1584颗将部署在地球上空550千米处的近地轨道,并从2020年开始工作。该卫星仍在工作。
2D Orbit Map
3D Orbit Map
Orbit Altitude Analysis Chart
Orbit Inclination Analysis Chart
Orbit Comprehensive Analysis Chart
View Comprehensive Chart